Regional Weather Roundup
Issued by NWS Northern Indiana

Home | Current Version | Previous Version | Text Only | Print | Product List | Glossary Off
Versions: 1 2 3 4 5 6 7 8 9 10 11 12 13 14 15 16 17 18 19 20 21 22 23 24 25 26 27 28 29 30 31 32 33 34 35 36 37 38 39 40 41 42 43 44 45 46 47 48 49 50

000
ASUS43 KIWX 040810
RWRIWX

KIWX WEATHER ROUNDUP
NATIONAL WEATHER SERVICE NORTHERN INDIANA
400 AM EDT SAT JUL 04 2015

NOTE: "FAIR" INDICATES FEW OR NO CLOUDS BELOW 12,000 FEET WITH NO
SIGNIFICANT WEATHER AND/OR OBSTRUCTIONS TO VISIBILITY.

* THESE STATIONS ARE NOT UNDER NWS QUALITY CONTROL. THEY ALSO MAY NOT
  REPORT WEATHER SUCH AS PRECIPITATION OR FOG.

INZ001>027-040900-
NORTHERN INDIANA

CITY           SKY/WX    TMP DP  RH WIND       PRES   REMARKS
GARY*            N/A    N/A N/A N/A CALM      29.96S FOG
VALPARAISO     CLEAR     56  54  93 CALM      29.96S
MICHIGAN CITY* CLEAR     54  54 100 CALM      29.96S FOG
LAPORTE*       PTCLDY   N/A N/A N/A CALM      29.96S HAZE
KNOX*            N/A     55  55 100 CALM      29.94F
SOUTH BEND     CLEAR     57  53  86 CALM      29.96S
GOSHEN         CLEAR     56  53  90 CALM      29.94F FOG
MONTICELLO*    CLEAR     58  58 100 CALM      29.94S
LOGANSPORT*    CLEAR     59  55  88 CALM      29.95S
ROCHESTER*     CLEAR     59  59 100 CALM      29.95S FOG
WARSAW*        FOG       54  54 100 CALM      29.94F VSB 3/4
ANGOLA*          N/A     55  43  62 CALM      29.95S
FORT WAYNE     PTCLDY    58  57  97 CALM      29.95S
HUNTINGTON*    CLEAR     57  56  97 CALM      29.94F FOG
PERU/GRISSOM   CLEAR     60  59  96 CALM      29.94S
MARION*        CLEAR     57  57  98 CALM      29.96R FOG

$$
INZ028>050-040900-
CENTRAL INDIANA

CITY           SKY/WX    TMP DP  RH WIND       PRES   REMARKS
LAFAYETTE      CLEAR     57  56  96 NW3       29.94F FOG
KOKOMO*        CLEAR     59  55  88 CALM      29.95S
MUNCIE*        CLEAR     62  60  93 CALM      29.94F FOG
INDIANAPOLIS   MOCLDY    66  61  84 N6        29.91F

$$
MIZ043>046-050>051-056>058-064>065-071>073-077>080-040900-
SOUTHWEST LOWER MICHIGAN

CITY           SKY/WX    TMP DP  RH WIND       PRES   REMARKS
BATTLE CREEK   CLEAR     56  52  86 CALM      29.95S
BENTON HARBOR  CLEAR     51  50  96 CALM      29.95S FOG
COLDWATER*     CLEAR     54  54  99 SE3       29.95S FOG
HILLSDALE*     CLEAR     55  55 100 CALM      29.95S FOG
HOLLAND        CLEAR     55  51  86 CALM      29.95S
GRAND RAPIDS   CLEAR     54  52  93 SE5       29.94F
KALAMAZOO      CLEAR     56  53  90 CALM      29.95S FOG
STURGIS*       CLEAR     54  54 100 CALM      29.94F FOG
THREE RIVERS*  FAIR      56  55  94 CALM      29.95S

$$
OHZ001>008-015>018-024>025-040900-
NORTHWEST OHIO

CITY           SKY/WX    TMP DP  RH WIND       PRES   REMARKS
DEFIANCE       CLEAR     55  53  93 CALM      29.94F
FINDLAY        CLEAR     56  52  86 CALM      29.92S
TOLEDO EXPRESS CLEAR     55  51  86 CALM      29.93F
TOLEDO METCALF CLEAR     57  53  86 CALM      29.94S
LIMA           CLEAR     55  53  93 CALM      29.94S

$$
AND FOR LAKE MICHIGAN COASTAL AND OPEN LAKE BUOY OBSERVATIONS

STATION/POSITION TEMP    WIND        PRES    VSBY  WAVE
                 AIR SEA DIR/SP/G                  HT/PER
                 (F)     (DEG/KT/KT) (MB)    (MI)  (FT/S)
CALUMET HARBOR    63     240/  1/  2   N/A
MICHIGAN CITY     58     210/  3/  4   N/A
BURNS HARBOR      62     200/  3/  4 1014.9
SAINT JOSEPH      58        CALM       N/A
4 MI NW BRIDGMAN  62 62                N/A           0
MICHIGAN CITY     63 63  240/  4/  4   N/A           1

$$
&&



USA.gov is the U.S. government's official web portal to all federal, state and local government web resources and services.